This is the latest recevied weather packets stored in our database for station/object K5OLV. If no packets are shown the sender has not sent any weather packets the latest 10 day(s).
| Time | Temp. | Humidity | Pressure | Rain* | Wind** | Luminosity | Snow |
|---|---|---|---|---|---|---|---|
| 1788227680 | 23.89° C | 82% | 1018.2 hPa | 0 mm | - | 0 W/m² | - |
| 1788227379 | 23.89° C | 81% | 1018.3 hPa | 0 mm | - | 0 W/m² | - |
| 1788227076 | 23.89° C | 83% | 1018.1 hPa | 0 mm | - | 0 W/m² | - |
| 1788226771 | 23.89° C | 83% | 1018 hPa | 0 mm | - | 0 W/m² | - |
| 1788226467 | 23.89° C | 84% | 1017.9 hPa | 0 mm | - | 0 W/m² | - |
| 1788226162 | 23.89° C | 84% | 1017.9 hPa | 0 mm | - | 0 W/m² | - |
| 1788225857 | 23.89° C | 85% | 1017.9 hPa | 0 mm | - | 0 W/m² | - |
| 1788225552 | 23.89° C | 85% | 1018 hPa | 0 mm | - | 0 W/m² | - |
| 1788225248 | 23.89° C | 85% | 1017.9 hPa | 0 mm | - | 0 W/m² | - |
| 1788224946 | 23.89° C | 85% | 1017.9 hPa | 0 mm | - | 0 W/m² | - |
| 1788224641 | 23.89° C | 87% | 1017.9 hPa | 0 mm | - | 0 W/m² | - |
| 1788224340 | 23.89° C | 86% | 1017.9 hPa | 0 mm | - | 0 W/m² | - |
| 1788224036 | 23.89° C | 87% | 1017.4 hPa | 0 mm | - | 0 W/m² | - |
| 1788223730 | 23.89° C | 86% | 1017.3 hPa | 0 mm | - | 0 W/m² | - |
| 1788223430 | 23.89° C | 89% | 1017.5 hPa | 0 mm | - | 0 W/m² | - |
| 1788223124 | 23.89° C | 87% | 1017.2 hPa | 0 mm | - | 0 W/m² | - |
| 1788222820 | 24.44° C | 88% | 1017.4 hPa | 0 mm | - | 0 W/m² | - |
| 1788222518 | 24.44° C | 87% | 1017.3 hPa | 0 mm | - | 0 W/m² | - |
| 1788222218 | 24.44° C | 89% | 1017.3 hPa | 0 mm | - | 0 W/m² | - |
| 1788221912 | 24.44° C | 90% | 1017.5 hPa | 0 mm | - | 0 W/m² | - |
| 1788221608 | 24.44° C | 90% | 1017.2 hPa | 0 mm | - | 0 W/m² | - |
| 1788221308 | 25° C | 90% | 1017.4 hPa | 0 mm | - | 2 W/m² | - |
| 1788220998 | 25° C | 90% | 1017.5 hPa | 0 mm | - | 3 W/m² | - |
| 1788220696 | 25° C | 89% | 1017.3 hPa | 0 mm | - | 6 W/m² | - |
| 1788220393 | 25.56° C | 89% | 1017.7 hPa | 0 mm | - | 9 W/m² | - |
* Rain latest hour (hover to see other rain measurements)
** Current wind speed in m/s (hover to see current wind gust speed)